EW8418 Weather Reports


time (UTC)temp
F
wind
direction
speed
knots
gust
knots
rain 1hr
in
rain 24hr
in
rain mn
in
humidity
%
barometer
mb
20260503181533 60 217 6.1 0.0 0.00 0.00 0.00 68 1013.1
20260503180037 60 197 6.1 0.0 0.00 0.00 0.00 70 1013.0
20260503174526 59 183 5.2 0.0 0.00 0.00 0.00 70 1013.0
20260503173022 58 212 5.2 0.0 0.00 0.00 0.00 73 1013.1
20260503171521 57 203 4.3 0.0 0.00 0.00 0.00 74 1013.2
20260503120121 52 240 0.9 0.0 0.00 0.00 0.00 84 1011.2
20260503081546 52 227 2.6 0.0 0.00 0.00 0.00 85 1012.2
20260503071543 52 246 2.6 0.0 0.00 0.00 0.00 85 1012.1
20260503054539 52 259 3.5 0.0 0.00 0.00 0.00 85 1012.6
20260503053040 52 234 3.5 0.0 0.00 0.00 0.00 85 1012.6
20260503051538 52 253 4.3 0.0 0.00 0.00 0.00 85 1012.5
20260503050037 52 221 2.6 0.0 0.00 0.00 0.00 86 1012.7
20260503044536 52 226 3.5 0.0 0.00 0.00 0.00 85 1012.6
20260503043041 52 255 4.3 0.0 0.00 0.00 0.00 85 1012.7
20260503041536 52 270 3.5 0.0 0.00 0.00 0.00 84 1012.5
20260503040045 52 240 3.5 0.0 0.00 0.00 0.00 84 1012.4
20260503034546 53 274 3.5 0.0 0.00 0.00 0.00 84 1012.2
20260503033041 53 238 2.6 0.0 0.00 0.00 0.00 84 1012.1
20260503031540 53 290 4.3 0.0 0.00 0.00 0.00 83 1011.8
20260503030046 53 227 4.3 0.0 0.00 0.00 0.00 83 1011.8
20260503024533 53 219 2.6 0.0 0.00 0.00 0.00 83 1011.8
20260503023033 53 262 2.6 0.0 0.00 0.00 0.00 82 1011.8
20260503021540 53 240 4.3 0.0 0.00 0.00 0.00 82 1011.8
20260503020032 54 252 4.3 0.0 0.00 0.00 0.00 81 1011.8
20260503014531 54 246 4.3 0.0 0.00 0.00 0.00 80 1011.9
20260503013030 55 236 5.2 0.0 0.00 0.00 0.00 79 1012.0
20260503011529 55 231 4.3 0.0 0.00 0.00 0.00 78 1012.0
20260503010029 56 264 3.5 0.0 0.00 0.00 0.00 77 1012.1
20260503004530 55 228 7.0 0.0 0.00 0.00 0.00 77 1012.1
20260503003028 57 230 7.0 0.0 0.00 0.00 0.00 75 1012.1
20260503001528 57 226 7.8 0.0 0.00 0.00 0.00 74 1012.0
20260503000033 58 250 7.0 0.0 0.00 0.00 0.00 72 1012.0
20260502234527 58 214 7.0 0.0 0.00 0.00 0.00 71 1012.2
20260502233026 59 255 8.7 0.0 0.00 0.00 0.00 70 1012.2
20260502231526 60 292 7.0 0.0 0.00 0.00 0.00 68 1012.2
20260502230024 61 248 8.7 0.0 0.00 0.00 0.00 68 1012.3
20260502224524 61 214 7.0 0.0 0.00 0.00 0.00 68 1012.6
20260502223024 61 230 7.0 0.0 0.00 0.00 0.00 68 1012.7
20260502221523 62 210 6.1 0.0 0.00 0.00 0.00 68 1012.8
20260502220022 62 257 7.0 0.0 0.00 0.00 0.00 68 1012.9
20260502214527 60 271 9.6 0.0 0.00 0.00 0.00 72 1012.9
20260502213016 62 242 9.6 0.0 0.00 0.00 0.00 70 1012.9
20260502211526 62 245 7.8 0.0 0.00 0.00 0.00 71 1013.0
20260502210011 61 214 6.1 0.0 0.00 0.00 0.00 74 1013.2
20260502204511 61 240 6.1 0.0 0.00 0.00 0.00 73 1013.3
20260502203010 60 169 7.0 0.0 0.00 0.00 0.00 76 1013.3
20260502201510 60 210 6.1 0.0 0.00 0.00 0.00 75 1013.5
20260502200007 60 202 6.1 0.0 0.00 0.00 0.00 74 1013.4
20260502194503 61 229 7.0 0.0 0.00 0.00 0.00 74 1013.4
20260502193102 61 200 7.8 0.0 0.00 0.00 0.00 74 1013.4
20260502191556 60 211 7.0 0.0 0.00 0.00 0.00 74 1013.4
20260502184555 61 245 6.1 0.0 0.00 0.00 0.00 73 1013.4
20260502183042 62 219 3.5 0.0 0.00 0.00 0.00 72 1013.4